Regional Weather Roundup
Issued by NWS

Home | Current Version | Previous Version | Graphics & Text | Print | Product List | Glossary On
Versions: 1 2 3 4 5 6 7 8 9 10 11 12 13 14 15 16 17 18 19 20 21 22 23 24 25 26 27 28 29 30 31 32 33 34 35 36 37 38 39 40 41 42 43 44 45 46 47 48 49 50
000
ASUS43 KIND 231459
RWRIN

WEATHER ROUNDUP FOR INDIANA
NATIONAL WEATHER SERVICE INDIANAPOLIS IN
1000 AM EST TUE JAN 23 2018

NOTE: "FAIR" INDICATES FEW OR NO CLOUDS BELOW 12,000 FEET WITH NO
SIGNIFICANT WEATHER AND/OR OBSTRUCTIONS TO VISIBILITY.

* - STATION DOES NOT REPORT WEATHER SUCH AS PRECIPITATION OR FOG.

+ - STATION NOT QUALITY CONTROLLED BY THE NATIONAL WEATHER SERVICE.
    USE DATA WITH CAUTION...ESPECIALLY DEWPOINT AND RELATIVE
    HUMIDITY OBSERVATIONS.

INZ001>003-010>013-019-020-231600-
NORTHWEST INDIANA

CITY           SKY/WX    TMP DP  RH WIND       PRES   REMARKS
GARY /AIRPORT/ CLOUDY    34  30  86 NW12G23   29.74R WCI  25
KNOX *+        CLOUDY    32  32 100 NW10      29.70R WCI  24
MICHIGAN CITY+ LGT SNOW  32  32 100 NW10G17   29.72R VSB 1   WCI  24
MONTICELLO +   DRIZZLE   34  33  95 SW15G22   29.71R WCI  24
RENSSELAER +   CLOUDY    34  30  86 W13G21    29.74R WCI  25

$$

LMZ046-743>745-231600-
SOUTHERN LAKE MICHIGAN

STATION/POSITION TIME  TEMP    WIND        PRES    WAVE
                       AIR SEA DIR/SP/G            HT
                 (UTC) (F)     (DEG/KT/KT) (MB)    (FT)
BURNS HARBOR     1440   31     310/ 17/ 22 1006.8R
MICHIGAN CITY    1430   31     280/ 21/ 22   N/A

$$

INZ004-005-014>016-021>024-231600-
NORTH CENTRAL INDIANA

CITY           SKY/WX    TMP DP  RH WIND       PRES   REMARKS
ELKHART        LGT SNOW  32  32 100 NW12      29.65R WCI  23
GOSHEN         LGT SNOW  33  32  96 W18G26    29.65R VSB 3/4 WCI  22
PERU/GRISSOM   LGT SNOW  34  34 100 SW17      29.70R WCI  24
SOUTH BEND     LGT SNOW  31  29  92 NW16      29.68R VSB 3/4 WCI  20

$$

INZ006>009-017-018-025>027-231600-
NORTHEAST INDIANA

CITY           SKY/WX    TMP DP  RH WIND       PRES   REMARKS
FORT WAYNE     PTSUNNY   37  33  85 SW21G26   29.66R WCI  26
KENDALLVILLE + LGT RAIN  35  34  96 SW12G21   29.61R WCI  26

$$

INZ028-029-035-036-043>045-051>053-231600-
WEST CENTRAL INDIANA

CITY           SKY/WX    TMP DP  RH WIND       PRES   REMARKS
CRAWFORDSVL +  CLOUDY    32  32 100 MISG      29.77R FOG
GREENCASTLE +  CLOUDY    34  32  93 W10       29.80R FOG     WCI  26
LAFAYETTE      CLOUDY    34  33  96 W13G22    29.75R FOG     WCI  25
TERRE HAUTE    CLOUDY    36  33  89 W13       29.82R WCI  27

$$

INZ030>032-037>040-046>048-054>057-064-065-231600-
CENTRAL INDIANA

CITY           SKY/WX    TMP DP  RH WIND       PRES   REMARKS
ANDERSON       PTSUNNY   36  32  87 SW12G17   29.74R WCI  27
COLUMBUS       LGT SNOW  34  30  86 W12       29.82R FOG     WCI  25
GREENWOOD *+   CLOUDY    36  32  85 SW9       29.78R WCI  29
INDIANAPOLIS   CLOUDY    35  32  88 SW17      29.78R WCI  25
-EAGLE CREEK   CLOUDY    35  31  85 VRB6G18   29.77R WCI  30
MT COMFORT *+  PTSUNNY   34  34 100 SW14      29.76R WCI  24
SHELBYVILLE    CLOUDY    37  31  78 SW14G22   29.78R WCI  28

$$

INZ033-034-041-042-049-050-058-059-231600-
EAST CENTRAL INDIANA

CITY           SKY/WX    TMP DP  RH WIND       PRES   REMARKS
MUNCIE         CLOUDY    36  30  79 SW14G22   29.72R WCI  27
RICHMOND +     CLOUDY    32  32 100 W20G25    29.76R WCI  20

$$

INZ060-061-067>069-081>083-085>088-231600-
SOUTHWEST INDIANA

CITY           SKY/WX    TMP DP  RH WIND       PRES   REMARKS
EVANSVILLE     CLOUDY    38  32  79 W13G23    29.94R WCI  30
HUNTINGBURG +  CLOUDY    38  32  79 W15       29.91R WCI  29

$$

INZ062-063-066-070>080-084-089>092-231600-
SOUTH CENTRAL AND SOUTHEAST INDIANA

CITY           SKY/WX    TMP DP  RH WIND       PRES   REMARKS
BLOOMINGTON    CLOUDY    36  32  85 W15G22    29.82R WCI  27
FRENCH LICK *+ CLOUDY    36  32  87 SW9G18    29.87R WCI  29

$$




USA.gov is the U.S. government's official web portal to all federal, state and local government web resources and services.